FW3268 Weather Reports


Display with metric or nautical units.
time (UTC)temp
F
wind
direction
speed
MPH
gust
MPH
rain 1hr
in
rain 24hr
in
rain mn
in
humidity
%
barometer
mb
20260507154502 52 293 4.0 10.0 0.00 0.00 0.00 59 1015.6
20260507153001 52 293 5.0 11.0 0.00 0.00 0.00 59 1015.6
20260507151501 51 316 5.0 10.0 0.00 0.00 0.00 59 1015.4
20260507150005 50 271 4.0 10.0 0.00 0.00 0.00 57 1015.3
20260507144500 50 281 4.0 9.0 0.00 0.00 0.00 58 1015.6
20260507141500 48 309 4.0 9.0 0.00 0.00 0.00 61 1015.6
20260507140003 48 315 4.0 9.0 0.00 0.00 0.00 63 1015.6
20260507134501 47 309 4.0 8.0 0.00 0.00 0.00 62 1015.6
20260507133000 46 301 4.0 10.0 0.00 0.00 0.00 61 1015.7
20260507131502 46 298 3.0 6.0 0.00 0.00 0.00 66 1015.6
20260507130003 45 319 3.0 5.0 0.00 0.00 0.00 70 1015.6
20260507124501 44 304 2.0 4.0 0.00 0.00 0.00 72 1015.4
20260507123002 42 300 2.0 3.0 0.00 0.00 0.00 75 1015.4
20260507121500 42 297 1.0 2.0 0.00 0.00 0.00 78 1015.1
20260507120005 41 303 0.0 0.0 0.00 0.00 0.00 78 1015.2
20260507114500 40 302 0.0 0.0 0.00 0.00 0.00 75 1015.3
20260507113000 40 302 0.0 1.0 0.00 0.00 0.00 77 1015.1
20260507111500 40 302 1.0 1.0 0.00 0.00 0.00 77 1014.9
20260507110005 40 300 1.0 3.0 0.00 0.00 0.00 75 1015.0
20260507104500 40 287 1.0 2.0 0.00 0.00 0.00 75 1014.8
20260507103000 40 288 1.0 2.0 0.00 0.00 0.00 74 1014.8
20260507101500 40 290 1.0 3.0 0.00 0.00 0.00 75 1014.8
20260507100003 40 288 1.0 2.0 0.00 0.00 0.00 76 1014.8
20260507094501 40 295 1.0 2.0 0.00 0.00 0.00 77 1014.8
20260507093000 40 302 1.0 2.0 0.00 0.00 0.00 77 1014.8
20260507091500 39 304 2.0 2.0 0.00 0.00 0.00 78 1014.6
20260507090003 40 302 2.0 2.0 0.00 0.00 0.00 77 1014.7
20260507084459 39 315 1.0 2.0 0.00 0.00 0.00 80 1014.8
20260507083000 40 314 1.0 2.0 0.00 0.00 0.00 79 1014.6
20260507081500 39 314 1.0 2.0 0.00 0.00 0.00 80 1014.7
20260507080003 39 313 1.0 2.0 0.00 0.00 0.00 81 1014.6
20260507074501 40 314 1.0 2.0 0.00 0.00 0.00 79 1014.7
20260507072959 40 314 1.0 2.0 0.00 0.00 0.00 80 1014.7
20260507071500 40 307 1.0 2.0 0.00 0.00 0.00 80 1014.8
20260507070009 41 301 1.0 2.0 0.00 0.00 0.00 75 1014.8
20260507060004 42 319 2.0 3.0 0.00 0.01 0.00 77 1015.1
20260507053001 44 304 2.0 3.0 0.00 0.06 0.00 75 1015.2
20260507051500 44 305 2.0 4.0 0.00 0.06 0.00 74 1015.0
20260507050004 44 304 2.0 4.0 0.00 0.06 0.00 74 1015.0
20260507044502 44 302 2.0 4.0 0.00 0.12 0.00 75 1015.0
20260507043002 45 302 2.0 4.0 0.00 0.12 0.00 73 1014.9
20260507041502 46 301 2.0 4.0 0.00 0.12 0.00 72 1014.9
20260507040006 46 304 1.0 3.0 0.00 0.12 0.00 72 1014.9
20260507034504 47 300 2.0 3.0 0.00 0.25 0.12 71 1014.7
20260507033002 47 295 2.0 3.0 0.00 0.25 0.12 70 1014.7
20260507031501 48 285 2.0 3.0 0.00 0.25 0.12 70 1014.7
20260507024502 48 287 1.0 3.0 0.00 0.43 0.12 70 1014.4
20260507021503 48 300 1.0 2.0 0.00 0.43 0.12 71 1014.3
20260507020006 49 300 1.0 2.0 0.00 0.43 0.12 70 1014.3
20260507014502 49 305 1.0 2.0 0.00 0.53 0.12 71 1014.3
20260507013002 49 304 1.0 2.0 0.00 0.53 0.12 71 1014.2
20260507011503 50 304 1.0 2.0 0.00 0.53 0.12 68 1014.1
20260507010006 50 302 2.0 4.0 0.00 0.53 0.12 69 1013.9
20260507004503 51 300 2.0 3.0 0.00 0.60 0.12 66 1013.8
20260507001502 53 309 3.0 5.0 0.00 0.60 0.12 63 1013.3
20260507000005 52 293 2.0 4.0 0.00 0.60 0.12 67 1013.2
20260506234502 53 321 2.0 6.0 0.00 0.67 0.12 63 1013.3
20260506233002 53 304 3.0 7.0 0.00 0.67 0.12 63 1013.4
20260506230007 54 302 5.0 8.0 0.00 0.67 0.12 61 1013.4
20260506220006 55 297 5.0 10.0 0.00 0.73 0.12 53 1013.4
20260506214502 56 329 6.0 12.0 0.00 0.78 0.12 51 1013.2
20260506213000 56 308 7.0 12.0 0.00 0.78 0.12 61 1013.2
20260506210004 56 305 7.0 15.0 0.00 0.78 0.12 60 1013.2
20260506204501 55 292 6.0 11.0 0.00 0.79 0.12 59 1013.2
20260506203001 55 307 5.0 8.0 0.00 0.79 0.12 62 1013.3
20260506200004 54 309 5.0 8.0 0.00 0.79 0.12 58 1013.3
20260506194502 54 304 4.0 8.0 0.00 0.80 0.12 62 1013.4
20260506193000 54 301 4.0 8.0 0.00 0.80 0.12 62 1013.5
20260506191501 54 274 4.0 8.0 0.00 0.80 0.12 63 1013.5
20260506184500 54 302 3.0 5.0 0.00 0.90 0.12 69 1013.4
20260506183001 54 293 2.0 7.0 0.00 0.90 0.12 69 1013.5
20260506181501 53 281 4.0 7.0 0.00 0.90 0.12 67 1013.5
20260506180004 53 283 3.0 7.0 0.00 0.90 0.12 66 1013.5
20260506173001 54 234 2.0 5.0 0.00 1.01 0.12 66 1013.6
20260506171500 54 149 1.0 4.0 0.00 1.01 0.12 64 1013.6
20260506170003 54 250 1.0 3.0 0.00 1.01 0.12 65 1013.3
20260506164501 54 124 0.0 3.0 0.00 1.06 0.12 65 1013.5
20260506163001 53 304 0.0 0.0 0.00 1.06 0.12 66 1013.4
20260506161501 53 304 0.0 0.0 0.00 1.06 0.12 68 1013.3